BRO-1

operational
NORAD ID: 44495 Int'l Des: 2019-054 Owner: UNSEEN Country: F
LEOCIRCULAR

About BRO-1

Description loading...

Live Position

Loading 3D Globe...

Upcoming Passes

Altitude History

Altitude vs Time

uPlot chart will show altitude changes over time

Two-Line Element Set

1 44495U 19054A 26061.60449139 .00079968 00000-0 78846-3 0 9991
2 44495 44.9998 194.3223 0009302 288.1581 71.8303 15.64998100362930
Epoch: Mar 2, 2026 • Age: 37 hours

Current Status

Altitude 380.2 km
Velocity 7.68 km/s
Sub-Earth Point -36.22°S, 59.96°E
Launch Date Aug 19, 2019
Age 6.5 years
Type other

Technical Details

Classification Payload
Mass 10.00 kg
Dry Mass 10.00 kg
Total Mass 10.00 kg
Length 0.30 m
Diameter 0.20 m
Span 0.30 m
Shape Box
Manufacturer GOMSP
Bus Type Cubesat 6U
Phase Status In Orbit
Owner/State UNSEEN/F

Large Constellations

Loading constellations...